POLAR

Last updated on Aug. 1, 2020, 5:34 a.m. UTC

1 23802U 96013A   20212.05380797  .00000263  00000-0  00000-0 0  9991
2 23802  78.7056 249.2961 6283885 281.8771  18.2978  1.29846574116961
UTC
Height (km)
Latitude
Longitude
Inclination
Orbital Period
UTC large
Height (km)
Speed (km/s)
/
Latitude / Longitude
Inclination (degrees)
Orbital Period (minutes)
Azimuth
Elevation
Range (km)
Doppler Factor
iOS Compass Heading
iOS Angle

Next 30 passes for location: Hong Kong

Rise time Rise Azimuth (degrees) Set time Set Azimuth (degrees) Duration Max altitude (degrees)

No matching passes for this satellites